Land O' Lakes, WI

4:06 AM CDT on September 25, 2017 (GMT -0500)
Kings Land O'Lakes

Weather History for KLNL - January, 2013

Change the Weather History Date:

Saturday, January 12, 2013

  Actual Average (KEGV) Record (KEGV)
Temperature  
Mean Temperature 28 °F -  
Max Temperature 42 °F 21 °F 42 °F (2013)
Min Temperature 15 °F 1 °F -22 °F (1999)
Degree Days  
Heating Degree Days 36    
Moisture  
Dew Point 25 °F    
Average Humidity 81    
Maximum Humidity 100    
Minimum Humidity 69    
Precipitation  
Precipitation 0.00 in - - ()
Sea Level Pressure  
Sea Level Pressure 29.62 in    
Wind  
Wind Speed 10 mph (SW)    
Max Wind Speed 21 mph    
Max Gust Speed 30 mph    
Visibility 8 miles    
Events Rain , Snow    
Averages and records for this station are not official NWS values.
T = Trace of Precipitation, MM = Missing Value Source: NWS Daily Summary

Daily Weather History Graph

Daily Weather History Graph

Search for Another Location

Airport or City:

Trip Planner

Search our weather history database for the weather conditions in past years. The results will help you decide how hot, cold, wet, or windy it might be!

Date:

Astronomy

Jan. 12, 2013 Rise Set
Actual Time 7:36 AM CST 4:34 PM CST
Civil Twilight 7:02 AM CST 5:08 PM CST
Nautical Twilight 6:25 AM CST 5:45 PM CST
Astronomical Twilight 5:49 AM CST 6:21 PM CST
Moon 7:49 AM CST (1/12) 6:10 PM CST (1/12)
Length of Visible Light 10h 05m
Length of Day
8h 57m
New Moon, 1% of the Moon is Illuminated
Jan 12
New Moon
Jan 18
First Quarter
Jan 26
Full
Feb 3
Last Quarter
Feb 10
New

Hourly Weather History & Observations

Time (CST) Temp. Windchill Dew Point Humidity Pressure Visibility Wind Dir Wind Speed Gust Speed Precip Events Conditions
12:15 AM 41.0 °F 35.2 °F 39.2 °F 93% 29.43 in 2.5 mi South 9.2 mph - N/A   Overcast
12:55 AM 41.0 °F 35.2 °F 41.0 °F 100% 29.42 in 2.0 mi SSW 9.2 mph 17.3 mph N/A   Overcast
1:15 AM 41.0 °F 35.8 °F 41.0 °F 100% 29.41 in 2.5 mi SSW 8.1 mph - N/A   Overcast
1:35 AM 42.8 °F 37.5 °F 41.0 °F 93% 29.41 in 3.0 mi South 9.2 mph 18.4 mph N/A   Overcast
1:55 AM 42.8 °F 37.0 °F 41.0 °F 93% 29.41 in 4.0 mi SSW 10.4 mph 16.1 mph N/A   Overcast
2:15 AM 42.8 °F 37.5 °F 42.8 °F 100% 29.41 in 4.0 mi South 9.2 mph - N/A   Overcast
2:35 AM 42.8 °F 37.5 °F 42.8 °F 100% 29.41 in 5.0 mi South 9.2 mph 17.3 mph N/A   Overcast
2:55 AM 42.8 °F 37.0 °F 42.8 °F 100% 29.40 in 4.0 mi South 10.4 mph - N/A   Overcast
3:15 AM 42.8 °F 38.0 °F 41.0 °F 93% 29.39 in 4.0 mi SSW 8.1 mph - N/A   Overcast
3:35 AM 42.8 °F 37.5 °F 41.0 °F 93% 29.38 in 5.0 mi South 9.2 mph 17.3 mph N/A   Overcast
3:55 AM 42.8 °F 37.0 °F 41.0 °F 93% 29.37 in 5.0 mi SSW 10.4 mph 20.7 mph N/A   Overcast
4:15 AM 42.8 °F 36.6 °F 41.0 °F 93% 29.36 in 5.0 mi SSW 11.5 mph 19.6 mph N/A   Overcast
4:35 AM 42.8 °F 36.6 °F 41.0 °F 93% 29.36 in 7.0 mi SSW 11.5 mph 18.4 mph N/A   Overcast
4:55 AM 42.8 °F 37.5 °F 41.0 °F 93% 29.36 in 10.0 mi SSW 9.2 mph 21.9 mph N/A   Overcast
5:15 AM 42.8 °F 37.0 °F 41.0 °F 93% 29.36 in 10.0 mi SSW 10.4 mph 19.6 mph N/A   Overcast
5:35 AM 42.8 °F 36.2 °F 39.2 °F 87% 29.36 in 10.0 mi SSW 12.7 mph 20.7 mph N/A   Overcast
5:55 AM 42.8 °F 36.2 °F 39.2 °F 87% 29.36 in 7.0 mi SW 12.7 mph 18.4 mph N/A   Drizzle
6:15 AM 41.0 °F 31.6 °F 37.4 °F 87% 29.39 in 7.0 mi SW 20.7 mph 28.8 mph N/A Rain Light Rain
6:35 AM 41.0 °F 34.3 °F 35.6 °F 81% 29.41 in 10.0 mi WSW 11.5 mph 26.5 mph N/A   Overcast
6:55 AM 39.2 °F 30.5 °F 33.8 °F 81% 29.42 in 10.0 mi SW 16.1 mph 26.5 mph N/A   Overcast
7:15 AM 37.4 °F 28.5 °F 32.0 °F 81% 29.43 in 10.0 mi SW 15.0 mph 25.3 mph N/A   Mostly Cloudy
7:35 AM 37.4 °F 28.5 °F 32.0 °F 81% 29.44 in 10.0 mi SW 15.0 mph 27.6 mph N/A   Overcast
7:55 AM 35.6 °F 25.2 °F 32.0 °F 87% 29.46 in 10.0 mi WSW 18.4 mph 29.9 mph N/A   Overcast
8:15 AM 35.6 °F 25.5 °F 32.0 °F 87% 29.48 in 10.0 mi SW 17.3 mph 26.5 mph N/A   Overcast
8:35 AM 35.6 °F 28.0 °F 30.2 °F 81% 29.49 in 10.0 mi WSW 10.4 mph 23.0 mph N/A   Overcast
8:55 AM 33.8 °F 27.0 °F 32.0 °F 93% 29.52 in 1.5 mi WSW 8.1 mph 18.4 mph N/A Snow Light Snow
9:15 AM 32.0 °F 21.6 °F 28.4 °F 87% 29.51 in 10.0 mi SW 15.0 mph 27.6 mph N/A   Overcast
9:35 AM 32.0 °F 21.2 °F 28.4 °F 87% 29.53 in 10.0 mi SW 16.1 mph 24.2 mph N/A   Overcast
9:55 AM 32.0 °F 22.1 °F 26.6 °F 80% 29.55 in 10.0 mi SW 13.8 mph 27.6 mph N/A   Overcast
10:15 AM 32.0 °F 23.0 °F 24.8 °F 75% 29.56 in 10.0 mi SW 11.5 mph 23.0 mph N/A   Overcast
10:35 AM 30.2 °F 18.1 °F 23.0 °F 75% 29.59 in 10.0 mi WSW 18.4 mph 27.6 mph N/A   Overcast
10:55 AM 30.2 °F 20.2 °F 23.0 °F 75% 29.59 in 10.0 mi WSW 12.7 mph 26.5 mph N/A   Overcast
11:15 AM 30.2 °F 19.8 °F 23.0 °F 75% 29.60 in 10.0 mi WSW 13.8 mph 18.4 mph N/A   Overcast
11:35 AM 28.4 °F 18.5 °F 21.2 °F 74% 29.62 in 10.0 mi WSW 11.5 mph 17.3 mph N/A   Overcast
12:15 PM 28.4 °F 18.0 °F 21.2 °F 74% 29.64 in 10.0 mi WSW 12.7 mph 23.0 mph N/A   Overcast
12:35 PM 28.4 °F 18.0 °F 19.4 °F 69% 29.65 in 10.0 mi WSW 12.7 mph 21.9 mph N/A   Overcast
12:55 PM 26.6 °F 14.7 °F 19.4 °F 74% 29.66 in 10.0 mi WSW 15.0 mph 23.0 mph N/A   Overcast
1:15 PM 26.6 °F 16.8 °F 19.4 °F 74% 29.67 in 10.0 mi WSW 10.4 mph 24.2 mph N/A   Overcast
1:55 PM 26.6 °F 16.2 °F 19.4 °F 74% 29.69 in 10.0 mi WSW 11.5 mph 20.7 mph N/A   Overcast
2:15 PM 26.6 °F 17.5 °F 17.6 °F 69% 29.72 in 10.0 mi WSW 9.2 mph 18.4 mph N/A   Overcast
2:35 PM 24.8 °F 12.9 °F 17.6 °F 74% 29.74 in 10.0 mi WSW 13.8 mph 23.0 mph N/A   Overcast
3:15 PM 24.8 °F 12.9 °F 17.6 °F 74% 29.74 in 10.0 mi WSW 13.8 mph 17.3 mph N/A   Overcast
3:35 PM 23.0 °F 13.1 °F 17.6 °F 80% 29.76 in 10.0 mi WSW 9.2 mph 18.4 mph N/A   Overcast
3:55 PM 23.0 °F 13.1 °F 17.6 °F 80% 29.78 in 10.0 mi WSW 9.2 mph - N/A   Overcast
4:15 PM 23.0 °F 12.4 °F 15.8 °F 74% 29.78 in 10.0 mi WSW 10.4 mph 17.3 mph N/A   Overcast
4:35 PM 21.2 °F 10.9 °F 14.0 °F 74% 29.79 in 10.0 mi WSW 9.2 mph 16.1 mph N/A   Overcast
4:55 PM 21.2 °F 10.9 °F 14.0 °F 74% 29.78 in 10.0 mi West 9.2 mph 16.1 mph N/A   Overcast
5:15 PM 21.2 °F 10.1 °F 14.0 °F 74% 29.79 in 10.0 mi WSW 10.4 mph - N/A   Overcast
5:35 PM 21.2 °F 10.9 °F 14.0 °F 74% 29.81 in 7.0 mi WSW 9.2 mph - N/A Snow Light Snow
5:55 PM 19.4 °F 11.5 °F 14.0 °F 80% 29.84 in 10.0 mi West 5.8 mph - N/A Snow Light Snow
6:15 PM 19.4 °F 8.6 °F 14.0 °F 80% 29.84 in 7.0 mi WSW 9.2 mph - N/A Snow Light Snow
6:35 PM 19.4 °F 9.5 °F 12.2 °F 74% 29.85 in 10.0 mi West 8.1 mph - N/A Snow Light Snow
6:55 PM 19.4 °F 8.6 °F 12.2 °F 74% 29.84 in 10.0 mi West 9.2 mph - N/A Snow Light Snow
7:15 PM 19.4 °F 11.5 °F 12.2 °F 74% 29.85 in 10.0 mi West 5.8 mph - N/A   Overcast
7:35 PM 19.4 °F 11.5 °F 12.2 °F 74% 29.86 in 10.0 mi WSW 5.8 mph - N/A Snow Light Snow
7:55 PM 17.6 °F 8.2 °F 12.2 °F 79% 29.85 in 10.0 mi West 6.9 mph - N/A Snow Light Snow
8:15 PM 17.6 °F 7.3 °F 10.4 °F 73% 29.87 in 10.0 mi West 8.1 mph - N/A Snow Light Snow
8:35 PM 17.6 °F 6.4 °F 10.4 °F 73% 29.87 in 10.0 mi West 9.2 mph - N/A   Overcast
8:55 PM 17.6 °F 8.2 °F 10.4 °F 73% 29.87 in 10.0 mi West 6.9 mph - N/A   Overcast
9:15 PM 17.6 °F 9.3 °F 10.4 °F 73% 29.88 in 10.0 mi West 5.8 mph - N/A   Overcast
9:35 PM 17.6 °F 10.7 °F 10.4 °F 73% 29.88 in 10.0 mi West 4.6 mph - N/A   Overcast
9:55 PM 17.6 °F 7.3 °F 10.4 °F 73% 29.89 in 10.0 mi WSW 8.1 mph - N/A   Overcast
10:15 PM 17.6 °F 12.3 °F 10.4 °F 73% 29.89 in 10.0 mi WSW 3.5 mph - N/A   Overcast
10:35 PM 17.6 °F 8.2 °F 10.4 °F 73% 29.89 in 10.0 mi WSW 6.9 mph - N/A   Overcast
10:55 PM 17.6 °F 8.2 °F 10.4 °F 73% 29.87 in 10.0 mi West 6.9 mph - N/A   Overcast
11:35 PM 15.8 °F 7.2 °F 10.4 °F 79% 29.89 in 10.0 mi West 5.8 mph - N/A   Overcast
11:55 PM 15.8 °F 7.2 °F 10.4 °F 79% 29.89 in 10.0 mi West 5.8 mph - N/A   Overcast